This is the latest recevied weather packets stored in our database for station/object K7TUS-6. If no packets are shown the sender has not sent any weather packets the latest 1 day(s).
| Time | Temp. | Humidity | Pressure | Rain* | Wind** | Luminosity | Snow |
|---|---|---|---|---|---|---|---|
| 1778034009 | 3.33° C | 30% | 976.2 hPa | - | 8.05 m/s, 196° | - | - |
| 1778033707 | 3.33° C | 32% | 976.2 hPa | - | 4.47 m/s, 208° | - | - |
| 1778033407 | 3.33° C | 33% | 976.3 hPa | - | 6.71 m/s, 209° | - | - |
| 1778033104 | 3.33° C | 31% | 976.5 hPa | - | 6.26 m/s, 226° | - | - |
| 1778032804 | 3.33° C | 33% | 976.3 hPa | - | 7.15 m/s, 209° | - | - |
| 1778032503 | 3.33° C | 35% | 976.7 hPa | - | 6.71 m/s, 212° | - | - |
| 1778032209 | 3.89° C | 37% | 977.2 hPa | - | 5.81 m/s, 187° | - | - |
| 1778031908 | 3.89° C | 37% | 977.1 hPa | - | 5.36 m/s, 208° | - | - |
| 1778031607 | 3.89° C | 35% | 977.3 hPa | - | 5.81 m/s, 225° | - | - |
| 1778031305 | 4.44° C | 37% | 976.9 hPa | - | 5.81 m/s, 196° | - | - |
| 1778031004 | 4.44° C | 33% | 976.4 hPa | - | 5.36 m/s, 197° | - | - |
| 1778030703 | 4.44° C | 34% | 976.5 hPa | - | 3.58 m/s, 200° | - | - |
| 1778030403 | 4.44° C | 35% | 976.5 hPa | - | 2.68 m/s, 186° | - | - |
| 1778030108 | 4.44° C | 33% | 976.3 hPa | - | 10.28 m/s, 180° | - | - |
| 1778029808 | 4.44° C | 34% | 976.7 hPa | - | 6.26 m/s, 175° | - | - |
| 1778029507 | 5° C | 32% | 976.1 hPa | - | 5.81 m/s, 195° | - | - |
| 1778029206 | 5° C | 29% | 977.1 hPa | - | 8.05 m/s, 195° | - | - |
| 1778028906 | 5° C | 31% | 977 hPa | - | 6.26 m/s, 175° | - | - |
| 1778028605 | 5.56° C | 33% | 976.3 hPa | - | 2.68 m/s, 171° | - | - |
| 1778028305 | 5.56° C | 31% | 976.1 hPa | - | 4.47 m/s, 160° | - | - |
| 1778028004 | 5.56° C | 29% | 976.7 hPa | - | 3.13 m/s, 177° | - | - |
| 1778027703 | 6.67° C | 29% | 976.4 hPa | - | 2.68 m/s, 279° | - | - |
| 1778027403 | 6.67° C | 28% | 976.4 hPa | - | 3.13 m/s, 207° | - | - |
| 1778027108 | 7.22° C | 33% | 976.5 hPa | - | 1.34 m/s, 200° | - | - |
| 1778026807 | 6.67° C | 34% | 977.2 hPa | - | 0.89 m/s, 209° | - | - |
* Rain since midnight (hover to see other rain measurements)
** Current wind speed in m/s (hover to see current wind gust speed)